User: anonymous   Login
Location: Unspecified
(0.0000°N, 0.0000°E)
Time: 21:09:31
(UTC+00:00)
Language:

OBJECT Z - Orbit

View from above orbital plane
View from above orbital plane
View from above satellite
View from above satellite

Ground track
Ground track

The orbit data is extracted from the following two-line orbital elements,

1 43134U 18004Z   19047.40017197  .00000905  00000-0  41311-4 0  9996
2 43134  97.5036 115.3882 0008712 332.7460  27.3319 15.23179033 60878
Epoch (UTC): 16 February 2019 09:36:14
Eccentricity: 0.0008712
inclination: 97.5036°
perigee height: 490 km
apogee height: 502 km
right ascension of ascending node: 115.3882°
argument of perigee: 332.7460°
revolutions per day: 15.23179033
mean anomaly at epoch: 27.3319°
orbit number at epoch: 6087

The dashed part of the orbit path shows where the satellite is in the earth's shadow,  

DLR